ROMMA est une association bénévole à but non lucratif. Votre soutien est indispensable : ADHERER à ROMMA ou FAIRE un DON

Arâches-la-Frasse - (74, Haute-Savoie)

Domaine du Grand Massif (1120 m)   Longitude: 06° 38' 33" E   Latitude: 46° 02' 45" N Station partenaire n°39
 

Détail journalier du     <<     >>

Température Humidité Vent Dir Rafale Dir. rafale Ensol.
Heure (°C) (%) (km/h) (km/h) (min)
01:00 10.8876ESE10ESE0
02:00 11.1875ESE11ESE0
03:00 10.9865ESE8ESE0
04:00 10.6846E13ESE0
05:00 10.5856ESE10ESE0
06:00 10.6845ESE13ESE0
07:00 10.8806ESE11ESE0
08:00 11.3756ESE13ESE0
09:00 11.4736E13ESE0
10:00 12.9685E13ESE30
11:00 16.1621E8E60
12:00 18.1582E10S60
13:00 18.8533SSO11N60
14:00 19.4504N15N60
15:00 19.2535N16NE60
16:00 20.3513N15NNO60
17:00 18.6535SSO18N60
18:00 17.6593NNO11NE60
19:00 16.0642NE11NE30
20:00 14.0815NE24NNO0
21:00 11.9915N27OSO0
22:00 10.49110SSO37SO0
23:00 9.7936SSE24SSE0
minuit 9.6932SSO15SSO0

Graphique du 01-10-2019

 

Serveur OMMA